Location: Newark
(70.3000°N, 13.1000°W)
Time: 15:55:25
(UTC+00:00)

N. Korean satellite - Visible Passes

Search period start: 29 January 2020 00:00
Search period end: 08 February 2020 00:00
Orbit: 454 x 507 km, 97.2° (Epoch: 28 January)

Date Brightness Start Highest point End Pass type
(mag) Time Alt. Az. Time Alt. Az. Time Alt. Az.
29 Jan 9.7 05:30:51 10° NE 05:33:06 16° E 05:35:22 10° ESE visible
29 Jan 7.3 07:03:45 10° NNE 07:07:15 54° ESE 07:10:48 10° S visible
29 Jan 6.9 08:37:16 10° NNE 08:40:40 43° NW 08:44:05 10° SW visible
29 Jan 8.1 17:53:42 10° S 17:56:58 39° W 18:00:19 10° NNW visible
29 Jan 10.0 19:30:03 10° W 19:31:21 12° WNW 19:32:39 10° NW visible
30 Jan 10.0 05:05:57 10° NE 05:07:14 12° ENE 05:08:32 10° E visible
30 Jan 8.1 06:38:15 10° NNE 06:41:37 37° E 06:45:00 10° SSE visible
30 Jan 6.5 08:11:42 10° NNE 08:15:13 59° WNW 08:18:46 10° SW visible
30 Jan 7.3 17:27:55 10° S 17:31:20 57° WSW 17:34:50 10° NNW visible
30 Jan 9.7 19:03:14 10° WSW 19:05:29 16° W 19:07:46 10° NW visible
31 Jan 8.8 06:12:49 10° NNE 06:15:55 27° E 06:19:03 10° SSE visible
31 Jan 6.5 07:46:08 10° NNE 07:49:43 84° WNW 07:53:20 10° SSW visible
31 Jan 7.5 09:19:44 10° NNE 09:22:49 28° NW 09:25:57 10° WSW visible
31 Jan 6.6 17:02:16 10° SSE 17:05:45 82° WSW 17:09:19 10° NNW visible
31 Jan 9.3 18:36:53 10° SW 18:39:41 22° W 18:42:31 10° NW visible
01 Feb 9.4 05:47:27 10° NE 05:50:09 20° E 05:52:52 10° SE visible
01 Feb 6.9 07:20:34 10° NNE 07:24:10 69° ESE 07:27:47 10° SSW visible
01 Feb 7.1 08:54:08 10° NNE 08:57:27 36° NW 09:00:47 10° WSW visible
01 Feb 8.6 18:10:48 10° SSW 18:13:56 31° W 18:17:08 10° NNW visible
02 Feb 9.9 05:22:16 10° NE 05:24:20 14° E 05:26:25 10° ESE visible
02 Feb 7.6 06:55:03 10° NNE 06:58:33 48° ESE 07:02:05 10° S visible
02 Feb 6.8 08:28:33 10° NNE 08:32:01 48° NW 08:35:32 10° SW visible
02 Feb 7.9 17:44:53 10° S 17:48:15 44° WSW 17:51:41 10° NNW visible
02 Feb 9.9 19:20:47 10° WSW 19:22:32 13° WNW 19:24:19 10° NW visible
03 Feb 10.2 04:57:40 10° ENE 04:58:27 11° ENE 04:59:14 10° E visible
03 Feb 8.4 06:29:34 10° NNE 06:32:54 34° E 06:36:15 10° SSE visible
03 Feb 6.5 08:02:58 10° NNE 08:06:33 67° WNW 08:10:11 10° SW visible
03 Feb 7.0 17:19:09 10° S 17:22:38 65° WSW 17:26:11 10° NNW visible
03 Feb 9.7 18:54:12 10° SW 18:56:42 18° W 18:59:14 10° NW visible
04 Feb 9.0 06:04:09 10° NE 06:07:10 24° E 06:10:13 10° SSE visible
04 Feb 6.6 07:37:25 10° NNE 07:41:02 87° ESE 07:44:42 10° SSW visible
04 Feb 9.1 18:27:57 10° SSW 18:30:54 25° W 18:33:55 10° NNW visible
05 Feb 9.6 05:38:49 10° NE 05:41:23 18° E 05:43:58 10° SE visible
05 Feb 7.1 07:11:52 10° NNE 07:15:28 61° ESE 07:19:06 10° S visible
05 Feb 7.0 08:45:24 10° NNE 08:48:48 40° NW 08:52:14 10° WSW visible
05 Feb 8.4 18:01:55 10° SSW 18:05:11 35° W 18:08:31 10° NNW visible
05 Feb 10.2 19:38:45 10° W 19:39:38 11° WNW 19:40:31 10° WNW visible
06 Feb 10.0 05:13:43 10° NE 05:15:32 13° ENE 05:17:23 10° ESE visible
06 Feb 7.9 06:46:21 10° NNE 06:49:50 43° E 06:53:21 10° S visible
06 Feb 6.7 08:19:49 10° NNE 08:23:21 54° WNW 08:26:57 10° SW visible
06 Feb 7.6 17:36:05 10° S 17:39:30 50° WSW 17:43:02 10° NNW visible
06 Feb 9.9 19:11:38 10° WSW 19:13:44 15° W 19:15:51 10° NW visible
07 Feb 8.6 06:20:53 10° NNE 06:24:09 30° E 06:27:27 10° SSE visible
07 Feb 6.5 07:54:14 10° NNE 07:57:52 75° WNW 08:01:33 10° SSW visible
07 Feb 9.5 18:45:11 10° SW 18:47:54 20° W 18:50:39 10° NW visible
